Regional Weather Roundup
Issued by NWS Sterling, VA

Home | Current Version | Previous Version | Graphics & Text | Print | Product List | Glossary On
Versions: 1 2 3 4 5 6 7 8 9 10 11 12 13 14 15 16 17 18 19 20 21 22 23 24 25 26 27 28 29 30 31 32 33 34 35 36 37 38 39 40 41 42 43 44 45 46 47 48 49 50
000
ASUS41 KLWX 191610
RWRLWX

REGIONAL WEATHER ROUNDUP
NATIONAL WEATHER SERVICE BALTIMORE MD/WASHINGTON DC
1100 AM EST FRI DEC 19 2014

Note: "FAIR" indicates few or no clouds below 12,000 feet
with no significant weather and/or obstructions to visibility.
 TC=TEMPERATURE CELSIUS

 * =Non NWS site. Station does not report precipitation (e.g. rain,
    snow, etc.), thunder, or fog.

DCZ001-MDZ009-015-VAZ040>042-051-053>054-191700-
WASHINGTON METRO

CITY           SKY/WX    TMP DP  RH WIND       PRES   REMARKS
WASHINGTON NAT CLOUDY    39  23  52 NW14G22   30.19S
DULLES         CLOUDY    35  23  61 NW13      30.18S WCI  26
ANDREWS AFB    CLOUDY    36  24  59 NW10G21   30.16S WCI  29
FT BELVOIR     CLOUDY    37  23  55 NW14G22   30.20R WCI  29
QUANTICO       PTSUNNY   38  22  52 N9G25     30.21S
COLLEGE PARK*  CLOUDY    37  27  65 W8G16     30.17F
LEESBURG*      CLOUDY    36  28  75 NW12      30.18S WCI  27
MANASSAS*      CLOUDY    37  25  60 NW10      30.19
GAITHERSBURG*  CLOUDY    34  21  60 NW9G17    30.19S WCI  26

$$

MDZ006>007-011-014-191700-
BALTIMORE METRO

CITY           SKY/WX    TMP DP  RH WIND       PRES   REMARKS
BWI AIRPORT    CLOUDY    37  23  56 NW10G21   30.15S
MD SCIENCE CTR   N/A     37  23  56 MISG      30.15F
MARTIN STATE   CLOUDY    39  27  60 W12       30.16S
ANNAPOLIS      CLOUDY    38  25  59 NW9       30.16S
FORT MEADE*    CLOUDY    36  25  64 W7        30.19S

$$

MDZ012-015-019>023-191700-
MARYLAND EASTERN SHORE

CITY           SKY/WX    TMP DP  RH WIND       PRES   REMARKS
OCEAN CITY     CLOUDY    39  26  59 NW14G20   30.14S
SALISBURY      CLOUDY    39  26  59 NW9       30.15S
BAY BRIDGE AP*   N/A     36  25  64 NW10G16   30.16F WCI  28
CAMBRIDGE*     CLOUDY    37  27  65 NW12G17   30.16S
EASTON*        CLOUDY    37  28  70 NW10      30.19S

$$

MDZ017>025-191700-
SOUTHERN MARYLAND

CITY           SKY/WX    TMP DP  RH WIND       PRES   REMARKS
PATUXENT RIVER PTSUNNY   37  23  56 NW15      30.18S WCI  28
ST INIGOES     CLOUDY    38  22  52 NW10      30.17S
LEONARDTOWN*   CLOUDY    36  23  60 NW8       30.19S

$$

MDZ003>005-191700-
NORTH CENTRAL MARYLAND

CITY           SKY/WX    TMP DP  RH WIND       PRES   REMARKS
FREDERICK*     PTSUNNY   37  21  52 NW8       30.19S
HAGERSTOWN APT CLOUDY    36  23  59 NW14      30.14S WCI  27
WESTMINSTER*   CLOUDY    34  25  69 W10G20    30.11F WCI  26

$$

MDZ501>502-191700-
WESTERN MARYLAND

CITY           SKY/WX    TMP DP  RH WIND       PRES   REMARKS
OAKLAND*       CLOUDY    21 N/A N/A W6        30.09R HAZE
CUMBERLAND*    CLOUDY    34  23  64 W9        30.22F WCI  26

$$

VAZ025>031-191700-
SHENANDOAH VALLEY

CITY           SKY/WX    TMP DP  RH WIND       PRES   REMARKS
WINCHESTER*    CLOUDY    36  19  51 W16G23    30.16F WCI  26
FRONT ROYAL*   CLOUDY    34  23  64 W9        30.18S WCI  26
LURAY*         CLOUDY    36  27  69 CALM      30.18S
NEW MARKET*    CLOUDY    34  22  61 NW6       30.18S
STAUNTON*      SUNNY     36  24  62 NE7       30.17F
WAYNESBORO*    FAIR      34  24  65 N7        30.14S

$$

WVZ021-048>050-054>055-191700-
EASTERN WEST VIRGINIA PANHANDLE

CITY           SKY/WX    TMP DP  RH WIND       PRES   REMARKS
MARTINSBURG    CLOUDY    37  21  52 NW15      30.17S WCI  28
PETERSBURG*    CLOUDY    34  22  60 NE6       30.21R

$$

VAZ036>039-050-191700-
CENTRAL FOOTHILLS

CITY           SKY/WX    TMP DP  RH WIND       PRES   REMARKS
CHARLOTTESVILL SUNNY     40  24  53 NE3       30.17S
CULPEPER*      MOSUNNY   37  25  60 N7        30.19F
ORANGE*        SUNNY     37  27  65 CALM      30.19F
GORDONSVILLE*  FAIR      37  24  58 S5        30.17F
WARRENTON*     PTSUNNY   40  29  65 NW13G21   30.18F

$$

VAZ055>057-191700-
NORTH AND CENTRAL PIEDMONT

CITY           SKY/WX    TMP DP  RH WIND       PRES   REMARKS
FREDERICKSBRG* SUNNY     40  25  53 N10G18    30.19F
STAFFORD*      CLOUDY    38  23  53 NW12      30.24S

$$

NCZ024-NYZ072-PAZ021-071-VAZ022-071-191700-
OTHER REGIONAL OBSERVATIONS

CITY           SKY/WX    TMP DP  RH WIND       PRES   REMARKS
NEW YORK CITY  CLOUDY    35  19  52 VRB6G20   30.08S
PHILADELPHIA   CLOUDY    40  24  53 NW13      30.10F
PITTSBURGH     LGT SNOW  29  28  96 W6        30.20S FOG
ROANOKE        SUNNY     41  22  46 NW12      30.19F
RICHMOND       SUNNY     41  23  48 NE7       30.18F
RALEIGH        MOSUNNY   47  22  37 N8        30.18F

$$

ANZ530>537-191700-
MARINE OBSERVATIONS

STATION/POSITION TIME  TEMP    WIND        PRES
                       AIR SEA DIR/SP/G
                 (UTC) (F)     (DEG/KT/KT) (MB)
THOMAS PT LIGHT  1600   36 41  300/ 14/ 17 1022.4F
BALT KEY BRIDGE  1600   37     280/ 13/ 14 1020.9F
COVE POINT       1600   35     340/ 16/ 19 1021.6F
LEWISETTA        1600   38 42  340/ 12/ 17 1021.8F
SOLOMONS ISLAND  1600      44                N/A
PINEY POINT      1600          350/ 15/ 18   N/A

$$




USA.gov is the U.S. government's official web portal to all federal, state and local government web resources and services.